Home   Weather   Mumbai   Past weeks

Flag for India Past Weather in Mumbai, Maharashtra, India — Yesterday and Last 2 Weeks

Now
82 °F

Broken clouds.


Feels Like: 91 °F
Forecast: 81 / 85 °F
Wind: 6 mph from Northwest

Location: Mumbai / Santacruz

Current Time: Sep 25, 2016 at 7:43:50 PM

Latest Report: Sep 25, 2016 at 7:00 PM


Visibility: 2 mi

Pressure: 29.71 "Hg

Humidity: 84%

Dew Point: 77 °F

Location of MumbaiLocation

Past Weather in Mumbai — Graph

°F

Mumbai Temperature Yesterday

Maximum temperature yesterday: 84 °F (at 4:00 PM)
Minimum temperature yesterday: 77 °F (at 3:30 AM)
Average temperature yesterday: 81 °F

High & Low Weather Summary for the Past Weeks

 TemperatureHumidityPressure
High88 °F (Sep 12, 2:00 PM)100% (Sep 15, 12:00 PM)29.86 "Hg (Sep 15, 12:00 PM)
Low75 °F (Sep 20, 4:00 PM)59% (Sep 11, 5:00 PM)29.59 "Hg (Sep 17, 2:30 PM)
Average81 °F87%29.74 "Hg
* Reported Sep 10 6:30 PM — Sep 25 6:30 PM, Mumbai, Weather by CustomWeather, © 2016

Note: Actual official high and low records may vary slightly from our data, if they occured in-between our weather recording intervals... More about our weather records

Advertising

Mumbai Weather History for the Previous 24 Hours

Scroll right to see more
 ConditionsComfort  
Time TempWeatherWind HumidityBarometerVisibility
6:30 PM
Sun, Sep 25
84 °FBroken clouds.7 mph79%29.71 "Hg2 mi
6:00 PM84 °FScattered clouds.8 mph79%29.68 "Hg3 mi
5:30 PM84 °FScattered clouds.5 mph79%29.68 "Hg3 mi
5:00 PM84 °FBroken clouds.12 mph79%29.68 "Hg3 mi
4:30 PM84 °FBroken clouds.9 mph79%29.68 "Hg3 mi
4:00 PM84 °FBroken clouds.10 mph79%29.68 "Hg3 mi
3:30 PM84 °FBroken clouds.13 mph79%29.68 "Hg3 mi
3:00 PM84 °FBroken clouds.9 mph79%29.71 "Hg3 mi
2:30 PM84 °FBroken clouds.9 mph74%29.71 "Hg2 mi
2:00 PM84 °FBroken clouds.7 mph74%29.71 "Hg2 mi
1:30 PM82 °FBroken clouds.6 mph79%29.71 "Hg2 mi
1:00 PM82 °FBroken clouds.6 mph79%29.74 "Hg1 mi
12:30 PM81 °FBroken clouds.5 mph89%29.74 "Hg1 mi
12:00 PM81 °FBroken clouds.6 mph84%29.74 "Hg1 mi
11:30 AM79 °FBroken clouds.6 mph89%29.77 "Hg1 mi
11:00 AM77 °FLight rain. More clouds than sun.6 mph94%29.77 "Hg1 mi
10:30 AM77 °FLight rain. More clouds than sun.7 mph94%29.77 "Hg1 mi
10:00 AM77 °FRain. More clouds than sun.7 mph94%29.77 "Hg1 mi
9:30 AM81 °FBroken clouds.7 mph84%29.77 "Hg2 mi
9:00 AM81 °FBroken clouds.7 mph79%29.77 "Hg2 mi
8:30 AM81 °FBroken clouds.7 mph84%29.74 "Hg2 mi
8:00 AM79 °FBroken clouds.8 mph89%29.74 "Hg2 mi
7:30 AM79 °FBroken clouds.6 mph84%29.74 "Hg1 mi
7:00 AM79 °FBroken clouds.7 mph84%29.71 "Hg1 mi
6:30 AM79 °FMostly cloudy.8 mph84%29.71 "Hg1 mi
6:00 AM79 °FMostly cloudy.9 mph84%29.68 "Hg1 mi
5:30 AM79 °FThunderstorms. Mostly cloudy.6 mph89%29.68 "Hg1 mi
5:00 AM79 °FThunderstorms. Mostly cloudy.9 mph84%29.65 "Hg1 mi
4:30 AM79 °FThunderstorms. Partly cloudy.12 mph84%29.65 "Hg1 mi
4:00 AM81 °FPassing clouds.10 mph89%29.65 "Hg2 mi
3:30 AM81 °FPassing clouds.8 mph89%29.65 "Hg2 mi
3:00 AM81 °FPassing clouds.7 mph89%29.65 "Hg2 mi
2:30 AM81 °FPassing clouds.5 mph89%29.65 "Hg2 mi
2:00 AM81 °FPassing clouds.8 mph89%29.68 "Hg2 mi
1:30 AM81 °FPartly cloudy.7 mph89%29.68 "Hg2 mi
1:00 AM81 °FPartly cloudy.8 mph89%29.68 "Hg2 mi
12:30 AM82 °FPartly cloudy.8 mph89%29.68 "Hg2 mi
11:30 PM
Sat, Sep 24
82 °FPartly cloudy.7 mph89%29.68 "Hg2 mi
11:00 PM82 °FPartly cloudy.9 mph89%29.71 "Hg2 mi
10:30 PM82 °FPartly cloudy.7 mph89%29.71 "Hg2 mi
10:00 PM82 °FPartly cloudy.6 mph89%29.71 "Hg2 mi
9:30 PM82 °FPartly cloudy.6 mph89%29.71 "Hg2 mi
9:00 PM84 °FPartly cloudy.7 mph84%29.71 "Hg2 mi
8:30 PM82 °FPartly cloudy.7 mph84%29.68 "Hg2 mi
8:00 PM82 °FPartly cloudy.7 mph89%29.68 "Hg2 mi
7:30 PM82 °FPartly cloudy.6 mph89%29.68 "Hg2 mi
7:00 PM82 °FBroken clouds.7 mph89%29.65 "Hg2 mi
Weather by CustomWeather, © 2016

See weather overviewHow to use our weather pages